Centerville, IA

8:16 PM CST on February 24, 2017 (GMT -0600)
Centerville Municipal

Weather History for KTVK - November, 2011

Change the Weather History Date:

Wednesday, November 30, 2011

  Actual Average Record
Temperature  
Mean Temperature 30 °F -  
Max Temperature 44 °F 43 °F 63 °F (1962)
Min Temperature 15 °F 25 °F -11 °F (1964)
Degree Days  
Heating Degree Days 36    
Moisture  
Dew Point 12 °F    
Average Humidity 51    
Maximum Humidity 80    
Minimum Humidity 20    
Precipitation  
Precipitation 0.00 in - - ()
Sea Level Pressure  
Sea Level Pressure 30.09 in    
Wind  
Wind Speed 8 mph (SSW)    
Max Wind Speed 14 mph    
Max Gust Speed -    
Visibility 10 miles    
Events      
Averages and records for this station are not official NWS values.
T = Trace of Precipitation, MM = Missing Value Source: NWS Daily Summary

Daily Weather History Graph

Daily Weather History Graph

Search for Another Location

Airport or City:

Trip Planner

Search our weather history database for the weather conditions in past years. The results will help you decide how hot, cold, wet, or windy it might be!

Date:

Astronomy

Nov. 30, 2011 Rise Set
Actual Time 7:14 AM CST 4:45 PM CST
Civil Twilight 6:44 AM CST 5:15 PM CST
Nautical Twilight 6:10 AM CST 5:49 PM CST
Astronomical Twilight 5:37 AM CST 6:22 PM CST
Moon 11:32 AM CST (11/30) 10:44 PM CST (11/30)
Length of Visible Light 10h 31m
Length of Day
9h 30m
Waxing Crescent, 34% of the Moon is Illuminated
Nov 30
Waxing Crescent
Dec 2
First Quarter
Dec 10
Full
Dec 17
Last Quarter
Dec 24
New

Hourly Weather History & Observations

Time (CST) Temp. Windchill Dew Point Humidity Pressure Visibility Wind Dir Wind Speed Gust Speed Precip Events Conditions
12:35 AM 23.0 °F 14.7 °F 14.0 °F 68% 30.16 in 10.0 mi NW 6.9 mph - N/A   Clear
12:55 AM 21.2 °F 11.7 °F 14.0 °F 74% 30.15 in 10.0 mi NW 8.1 mph - N/A   Clear
1:15 AM 19.4 °F 9.5 °F 14.0 °F 80% 30.15 in 10.0 mi NW 8.1 mph - N/A   Clear
2:15 AM 19.4 °F 7.9 °F 10.4 °F 68% 30.15 in 10.0 mi WNW 10.4 mph - N/A   Clear
2:35 AM 17.6 °F 7.3 °F 10.4 °F 73% 30.15 in 10.0 mi WNW 8.1 mph - N/A   Clear
2:55 AM 17.6 °F 9.3 °F 10.4 °F 73% 30.16 in 10.0 mi NW 5.8 mph - N/A   Clear
3:15 AM 17.6 °F 8.2 °F 10.4 °F 73% 30.15 in 10.0 mi WNW 6.9 mph - N/A   Clear
3:35 AM 17.6 °F 7.3 °F 10.4 °F 73% 30.15 in 10.0 mi WNW 8.1 mph - N/A   Clear
3:55 AM 17.6 °F 8.2 °F 10.4 °F 73% 30.14 in 10.0 mi West 6.9 mph - N/A   Clear
4:15 AM 17.6 °F 9.3 °F 10.4 °F 73% 30.14 in 10.0 mi West 5.8 mph - N/A   Clear
4:35 AM 17.6 °F 9.3 °F 10.4 °F 73% 30.14 in 10.0 mi WSW 5.8 mph - N/A   Clear
4:55 AM 17.6 °F 10.7 °F 10.4 °F 73% 30.14 in 10.0 mi WSW 4.6 mph - N/A   Clear
5:15 AM 17.6 °F 12.3 °F 10.4 °F 73% 30.13 in 10.0 mi SW 3.5 mph - N/A   Clear
5:35 AM 15.8 °F 10.2 °F 10.4 °F 79% 30.13 in 10.0 mi SW 3.5 mph - N/A   Clear
5:55 AM 15.8 °F 8.6 °F 10.4 °F 79% 30.13 in 10.0 mi SSW 4.6 mph - N/A   Clear
6:15 AM 15.8 °F 8.6 °F 10.4 °F 79% 30.13 in 10.0 mi SSW 4.6 mph - N/A   Clear
6:35 AM 17.6 °F 8.2 °F 10.4 °F 73% 30.12 in 10.0 mi SSW 6.9 mph - N/A   Clear
6:55 AM 15.8 °F 7.2 °F 10.4 °F 79% 30.12 in 10.0 mi SSW 5.8 mph - N/A   Clear
7:15 AM 17.6 °F 9.3 °F 10.4 °F 73% 30.12 in 10.0 mi SSW 5.8 mph - N/A   Clear
7:35 AM 17.6 °F 9.3 °F 10.4 °F 73% 30.13 in 10.0 mi SW 5.8 mph - N/A   Clear
7:55 AM 19.4 °F 10.4 °F 12.2 °F 74% 30.14 in 10.0 mi SW 6.9 mph - N/A   Clear
8:15 AM 19.4 °F 11.5 °F 14.0 °F 80% 30.14 in 10.0 mi SSW 5.8 mph - N/A   Clear
8:35 AM 23.0 °F 17.0 °F 15.8 °F 74% 30.14 in 10.0 mi SSW 4.6 mph - N/A   Clear
8:55 AM 26.6 °F 19.1 °F 15.8 °F 64% 30.14 in 10.0 mi SSW 6.9 mph - N/A   Clear
9:15 AM 28.4 °F 20.4 °F 17.6 °F 64% 30.14 in 10.0 mi SSW 8.1 mph - N/A   Clear
9:35 AM 32.0 °F 25.6 °F 15.8 °F 51% 30.14 in 10.0 mi SSW 6.9 mph - N/A   Clear
10:15 AM 35.6 °F 29.2 °F 15.8 °F 44% 30.14 in 10.0 mi SSW 8.1 mph - N/A   Clear
10:55 AM 37.4 °F 30.8 °F 10.4 °F 33% 30.12 in 10.0 mi South 9.2 mph - N/A   Clear
11:15 AM 39.2 °F 32.5 °F 10.4 °F 31% 30.11 in 10.0 mi SSW 10.4 mph - N/A   Clear
11:35 AM 41.0 °F 34.7 °F 10.4 °F 29% 30.11 in 10.0 mi SSW 10.4 mph - N/A   Clear
12:15 PM 41.0 °F 35.2 °F 10.4 °F 29% 30.09 in 10.0 mi South 9.2 mph - N/A   Clear
12:35 PM 42.8 °F 35.8 °F 8.6 °F 25% 30.07 in 10.0 mi SSW 13.8 mph - N/A   Clear
12:55 PM 42.8 °F 35.8 °F 6.8 °F 23% 30.06 in 10.0 mi South 13.8 mph - N/A   Clear
1:15 PM 44.6 °F 38.4 °F 6.8 °F 21% 30.06 in 10.0 mi SSW 12.7 mph - N/A   Clear
1:35 PM 44.6 °F 38.8 °F 6.8 °F 21% 30.05 in 10.0 mi South 11.5 mph - N/A   Clear
1:55 PM 44.6 °F 38.1 °F 5.0 °F 20% 30.04 in 10.0 mi South 13.8 mph - N/A   Clear
2:15 PM 44.6 °F 39.7 °F 5.0 °F 20% 30.04 in 10.0 mi South 9.2 mph - N/A   Clear
2:35 PM 44.6 °F 39.2 °F 8.6 °F 23% 30.04 in 10.0 mi South 10.4 mph - N/A   Clear
2:55 PM 44.6 °F 38.8 °F 8.6 °F 23% 30.04 in 10.0 mi South 11.5 mph - N/A   Clear
3:15 PM 44.6 °F 38.8 °F 8.6 °F 23% 30.03 in 10.0 mi South 11.5 mph - N/A   Clear
3:35 PM 44.6 °F 39.2 °F 10.4 °F 25% 30.03 in 10.0 mi SSE 10.4 mph - N/A   Clear
3:55 PM 42.8 °F 36.6 °F 10.4 °F 27% 30.04 in 10.0 mi South 11.5 mph - N/A   Clear
4:15 PM 41.0 °F 35.8 °F 8.6 °F 26% 30.04 in 10.0 mi South 8.1 mph - N/A   Clear
4:35 PM 41.0 °F 35.8 °F 8.6 °F 26% 30.04 in 10.0 mi South 8.1 mph - N/A   Clear
4:55 PM 39.2 °F 34.2 °F 12.2 °F 33% 30.03 in 10.0 mi SSE 6.9 mph - N/A   Clear
5:15 PM 39.2 °F 33.6 °F 14.0 °F 36% 30.03 in 10.0 mi SSE 8.1 mph - N/A   Clear
5:35 PM 37.4 °F 32.1 °F 15.8 °F 41% 30.03 in 10.0 mi SSE 6.9 mph - N/A   Clear
5:55 PM 37.4 °F 32.1 °F 15.8 °F 41% 30.03 in 10.0 mi SSE 6.9 mph - N/A   Clear
6:15 PM 37.4 °F 30.3 °F 17.6 °F 45% 30.03 in 10.0 mi SSE 10.4 mph - N/A   Clear
6:35 PM 37.4 °F 29.8 °F 15.8 °F 41% 30.02 in 10.0 mi SSE 11.5 mph - N/A   Clear
6:55 PM 37.4 °F 30.3 °F 15.8 °F 41% 30.03 in 10.0 mi SSE 10.4 mph - N/A   Clear
7:15 PM 37.4 °F 31.4 °F 15.8 °F 41% 30.04 in 10.0 mi SSE 8.1 mph - N/A   Clear
7:35 PM 37.4 °F 30.8 °F 15.8 °F 41% 30.04 in 10.0 mi SSE 9.2 mph - N/A   Clear
7:55 PM 37.4 °F 31.4 °F 14.0 °F 38% 30.04 in 10.0 mi SSE 8.1 mph - N/A   Clear
8:15 PM 37.4 °F 30.8 °F 14.0 °F 38% 30.04 in 10.0 mi SSE 9.2 mph - N/A   Clear
8:35 PM 37.4 °F 30.3 °F 15.8 °F 41% 30.03 in 10.0 mi SSE 10.4 mph - N/A   Clear
9:15 PM 35.6 °F 29.2 °F 15.8 °F 44% 30.05 in 10.0 mi SSE 8.1 mph - N/A   Clear
9:35 PM 35.6 °F 29.9 °F 15.8 °F 44% 30.05 in 10.0 mi SSE 6.9 mph - N/A   Clear
9:55 PM 35.6 °F 29.9 °F 15.8 °F 44% 30.06 in 10.0 mi SSE 6.9 mph - N/A   Clear
10:15 PM 35.6 °F 30.7 °F 15.8 °F 44% 30.07 in 10.0 mi South 5.8 mph - N/A   Clear
10:35 PM 33.8 °F 28.6 °F 14.0 °F 44% 30.08 in 10.0 mi South 5.8 mph - N/A   Clear
10:55 PM 32.0 °F 26.4 °F 15.8 °F 51% 30.08 in 10.0 mi South 5.8 mph - N/A   Clear
11:15 PM 32.0 °F 25.6 °F 14.0 °F 48% 30.09 in 10.0 mi South 6.9 mph - N/A   Clear
11:35 PM 32.0 °F 25.6 °F 15.8 °F 51% 30.09 in 10.0 mi SSE 6.9 mph - N/A   Clear
11:55 PM 32.0 °F 26.4 °F 15.8 °F 51% 30.10 in 10.0 mi South 5.8 mph - N/A   Clear